Weather History for KIPL - October, 2013

Change the Weather History Date:

Saturday, October 19, 2013

  Actual Average Record
Temperature  
Mean Temperature 72 °F -  
Max Temperature 91 °F 88 °F 102 °F (1991)
Min Temperature 55 °F 60 °F 46 °F (1971)
Cooling Degree Days 8    
Growing Degree Days 22 (Base 50)    
Moisture  
Dew Point 29 °F    
Average Humidity 23    
Maximum Humidity 36    
Minimum Humidity 9    
Precipitation  
Precipitation 0.00 in - - ()
Sea Level Pressure  
Sea Level Pressure 29.93 in    
Wind  
Wind Speed 4 mph (West)    
Max Wind Speed 8 mph    
Max Gust Speed -    
Visibility 10 miles    
Events      
Averages and records for this station are not official NWS values.
T = Trace of Precipitation, MM = Missing Value Source: NWS Daily Summary

Daily Weather History Graph

Daily Weather History Graph

Search for Another Location

Airport or City:

Trip Planner

Search our weather history database for the weather conditions in past years. The results will help you decide how hot, cold, wet, or windy it might be!

Date:

Astronomy

Oct. 19, 2013 Rise Set
Actual Time 6:49 AM PDT 6:04 PM PDT
Civil Twilight 6:24 AM PDT 6:29 PM PDT
Nautical Twilight 5:55 AM PDT 6:57 PM PDT
Astronomical Twilight 5:27 AM PDT 7:26 PM PDT
Moon 6:39 PM PDT (10/19) 7:28 AM PDT (10/19)
Length of Visible Light 12h 04m
Length of Day
11h 14m
Full, 99% of the Moon is Illuminated
Oct 19
Full
Oct 26
Last Quarter
Nov 3
New
Nov 9
First Quarter
Nov 17
Full

Hourly Weather History & Observations

Time (PDT) Temp. Dew Point Humidity Pressure Visibility Wind Dir Wind Speed Gust Speed Precip Events Conditions
12:53 AM 59.0 °F 28.9 °F 32% 29.93 in 10.0 mi WNW 5.8 mph - N/A   Clear
1:53 AM 60.1 °F 33.1 °F 36% 29.93 in 10.0 mi West 4.6 mph - N/A   Clear
2:53 AM 57.9 °F 28.9 °F 33% 29.93 in 10.0 mi WNW 5.8 mph - N/A   Clear
3:53 AM 55.9 °F 28.0 °F 34% 29.93 in 10.0 mi WNW 6.9 mph - N/A   Clear
4:53 AM 55.9 °F 28.0 °F 34% 29.94 in 10.0 mi West 8.1 mph - N/A   Clear
5:53 AM 57.0 °F 28.0 °F 33% 29.95 in 10.0 mi WSW 4.6 mph - N/A   Clear
6:53 AM 55.9 °F 28.0 °F 34% 29.96 in 10.0 mi West 6.9 mph - N/A   Clear
7:53 AM 60.1 °F 30.0 °F 32% 29.97 in 10.0 mi West 4.6 mph - N/A   Clear
8:53 AM 69.1 °F 33.1 °F 26% 30.00 in 10.0 mi West 5.8 mph - N/A   Clear
9:53 AM 77.0 °F 33.1 °F 20% 30.00 in 10.0 mi Calm Calm - N/A   Clear
10:53 AM 82.0 °F 26.1 °F 13% 29.99 in 10.0 mi Calm Calm - N/A   Clear
11:53 AM 86.0 °F 23.0 °F 10% 29.99 in 10.0 mi Variable 3.5 mph - N/A   Clear
12:53 PM 87.1 °F 25.0 °F 10% 29.96 in 10.0 mi WNW 3.5 mph - N/A   Clear
1:53 PM 87.1 °F 25.0 °F 10% 29.93 in 10.0 mi Calm Calm - N/A   Clear
2:53 PM 90.0 °F 24.1 °F 9% 29.91 in 10.0 mi North 3.5 mph - N/A   Clear
3:53 PM 90.0 °F 26.1 °F 10% 29.90 in 10.0 mi Calm Calm - N/A   Clear
4:53 PM 89.1 °F 28.9 °F 12% 29.89 in 10.0 mi WNW 5.8 mph - N/A   Clear
5:53 PM 87.1 °F 26.1 °F 11% 29.88 in 10.0 mi Calm Calm - N/A   Clear
6:53 PM 77.0 °F 30.9 °F 19% 29.89 in 10.0 mi WSW 3.5 mph - N/A   Clear
7:53 PM 73.0 °F 34.0 °F 24% 29.89 in 10.0 mi Calm Calm - N/A   Clear
8:53 PM 70.0 °F 35.1 °F 28% 29.90 in 10.0 mi Calm Calm - N/A   Clear
9:53 PM 66.0 °F 35.1 °F 32% 29.90 in 10.0 mi Calm Calm - N/A   Clear
10:53 PM 66.0 °F 30.0 °F 26% 29.90 in 10.0 mi SW 3.5 mph - N/A   Clear
11:53 PM 64.9 °F 24.1 °F 21% 29.89 in 10.0 mi WSW 6.9 mph - N/A   Clear